TimeCST,TemperatureF,Dew PointF,Humidity,Sea Level PressureIn,VisibilityMPH,Wind Direction,Wind SpeedMPH,Gust SpeedMPH,PrecipitationIn,Events,Conditions,WindDirDegrees,DateUTC
12:14 AM,-0.4,-5.8,78,30.01,2.5,Calm,Calm,-,N/A,Snow,Light Snow,0,2013-12-09 06:14:00
12:34 AM,-4.0,-7.6,85,29.99,7.0,Calm,Calm,-,N/A,Snow,Light Snow,0,2013-12-09 06:34:00
12:54 AM,-4.0,-7.6,85,29.99,5.0,Calm,Calm,-,N/A,Snow,Light Snow,0,2013-12-09 06:54:00
1:14 AM,-4.0,-7.6,85,29.97,10.0,Calm,Calm,-,N/A,,Overcast,0,2013-12-09 07:14:00
1:34 AM,-4.0,-7.6,85,29.97,5.0,Calm,Calm,-,N/A,Snow,Light Snow,0,2013-12-09 07:34:00
1:54 AM,-2.2,-5.8,85,29.97,2.0,Calm,Calm,-,N/A,Snow,Light Snow,0,2013-12-09 07:54:00
2:14 AM,-4.0,-7.6,85,29.97,5.0,Calm,Calm,-,N/A,Snow,Light Snow,0,2013-12-09 08:14:00
2:34 AM,-4.0,-7.6,85,29.97,5.0,Calm,Calm,-,N/A,Snow,Light Snow,0,2013-12-09 08:34:00
2:53 AM,-5.8,-9.4,84,29.97,10.0,Calm,Calm,-,N/A,,Clear,0,2013-12-09 08:53:00
3:14 AM,-7.6,-13.0,77,29.95,10.0,Calm,Calm,-,N/A,,Clear,0,2013-12-09 09:14:00
3:34 AM,-7.6,-13.0,77,29.94,10.0,Calm,Calm,-,N/A,,Clear,0,2013-12-09 09:34:00
3:54 AM,-9.4,-14.8,77,29.94,10.0,Calm,Calm,-,N/A,,Clear,0,2013-12-09 09:54:00
4:14 AM,-5.8,-9.4,84,29.93,10.0,West,4.6,-,N/A,,Clear,260,2013-12-09 10:14:00
4:33 AM,-4.0,-9.4,78,29.93,10.0,West,3.5,-,N/A,,Clear,270,2013-12-09 10:33:00
4:54 AM,-4.0,-7.6,85,29.92,10.0,West,4.6,-,N/A,,Clear,270,2013-12-09 10:54:00
5:14 AM,-4.0,-7.6,85,29.92,10.0,West,3.5,-,N/A,,Clear,270,2013-12-09 11:14:00
5:34 AM,-4.0,-7.6,85,29.92,10.0,West,3.5,-,N/A,,Clear,270,2013-12-09 11:34:00
5:54 AM,-4.0,-7.6,85,29.92,10.0,West,5.8,-,N/A,,Clear,260,2013-12-09 11:54:00
6:13 AM,-2.2,-5.8,85,29.92,10.0,West,5.8,-,N/A,,Clear,270,2013-12-09 12:13:00
6:34 AM,-2.2,-5.8,85,29.92,10.0,WSW,5.8,-,N/A,,Clear,250,2013-12-09 12:34:00
6:54 AM,-4.0,-7.6,85,29.92,10.0,West,8.1,-,N/A,,Clear,260,2013-12-09 12:54:00
7:14 AM,-4.0,-7.6,85,29.94,10.0,West,8.1,-,N/A,,Clear,260,2013-12-09 13:14:00
7:34 AM,-4.0,-7.6,85,29.95,10.0,West,10.4,-,N/A,,Clear,260,2013-12-09 13:34:00
7:54 AM,-4.0,-9.4,78,29.96,10.0,West,10.4,-,N/A,,Scattered Clouds,260,2013-12-09 13:54:00
8:14 AM,-5.8,-9.4,84,29.97,10.0,West,10.4,-,N/A,,Clear,260,2013-12-09 14:14:00
8:33 AM,-5.8,-9.4,84,29.97,2.5,West,10.4,-,N/A,Snow,Light Snow,260,2013-12-09 14:33:00
8:54 AM,-5.8,-9.4,84,29.98,1.2,West,12.7,-,N/A,Snow,Light Snow,260,2013-12-09 14:54:00
9:14 AM,-5.8,-9.4,84,29.99,1.2,West,11.5,-,N/A,Snow,Light Snow,270,2013-12-09 15:14:00
9:33 AM,-5.8,-9.4,84,29.99,0.8,West,13.8,-,N/A,Snow,Light Snow,280,2013-12-09 15:33:00
9:54 AM,-5.8,-9.4,84,30.00,1.5,West,12.7,18.4,N/A,Snow,Light Snow,280,2013-12-09 15:54:00
10:14 AM,-4.0,-9.4,78,30.00,2.5,West,11.5,17.3,N/A,Snow,Light Snow,270,2013-12-09 16:14:00
10:33 AM,-4.0,-9.4,78,30.00,1.0,West,13.8,21.9,N/A,Snow,Light Snow,270,2013-12-09 16:33:00
10:54 AM,-4.0,-9.4,78,30.00,1.2,WNW,15.0,20.7,N/A,Snow,Light Snow,290,2013-12-09 16:54:00
11:14 AM,-4.0,-11.2,71,30.01,0.8,West,12.7,19.6,N/A,Snow,Light Snow,270,2013-12-09 17:14:00
11:33 AM,-4.0,-11.2,71,30.01,1.8,West,15.0,18.4,N/A,,Haze,270,2013-12-09 17:33:00
11:54 AM,-2.2,-13.0,60,30.00,2.5,West,11.5,-,N/A,,Haze,270,2013-12-09 17:54:00
12:13 PM,-2.2,-13.0,60,30.00,1.2,West,12.7,18.4,N/A,Snow,Light Snow,270,2013-12-09 18:13:00
12:34 PM,-0.4,-13.0,55,30.00,3.0,West,11.5,-,N/A,,Haze,260,2013-12-09 18:34:00
12:54 PM,-0.4,-13.0,55,30.00,2.5,West,11.5,18.4,N/A,,Haze,270,2013-12-09 18:54:00
1:13 PM,-0.4,-11.2,60,30.01,10.0,West,12.7,16.1,N/A,,Clear,270,2013-12-09 19:13:00
1:34 PM,-0.4,-11.2,60,30.00,7.0,West,12.7,-,N/A,,Clear,270,2013-12-09 19:34:00
1:53 PM,-0.4,-11.2,60,30.00,10.0,West,10.4,16.1,N/A,,Clear,260,2013-12-09 19:53:00
2:14 PM,-0.4,-11.2,60,30.00,10.0,WSW,11.5,-,N/A,,Clear,250,2013-12-09 20:14:00
2:34 PM,-0.4,-11.2,60,30.01,10.0,WSW,13.8,-,N/A,,Clear,250,2013-12-09 20:34:00
2:54 PM,-0.4,-11.2,60,30.00,10.0,WSW,8.1,-,N/A,,Clear,250,2013-12-09 20:54:00
3:14 PM,-0.4,-11.2,60,30.00,10.0,WSW,10.4,17.3,N/A,,Clear,240,2013-12-09 21:14:00
3:34 PM,-0.4,-11.2,60,30.01,10.0,WSW,6.9,-,N/A,,Clear,250,2013-12-09 21:34:00
3:54 PM,-2.2,-13.0,60,30.02,10.0,WSW,10.4,16.1,N/A,,Clear,240,2013-12-09 21:54:00
4:14 PM,-4.0,-13.0,65,30.03,10.0,WSW,9.2,16.1,N/A,,Clear,250,2013-12-09 22:14:00
4:34 PM,-4.0,-13.0,65,30.04,10.0,WSW,8.1,-,N/A,,Clear,240,2013-12-09 22:34:00
4:53 PM,-4.0,-13.0,65,30.04,10.0,WSW,8.1,-,N/A,,Clear,240,2013-12-09 22:53:00
5:14 PM,-4.0,-13.0,65,30.04,10.0,WSW,5.8,-,N/A,,Clear,240,2013-12-09 23:14:00
5:34 PM,-5.8,-14.8,65,30.03,10.0,WSW,5.8,-,N/A,,Clear,240,2013-12-09 23:34:00
5:53 PM,-5.8,-14.8,65,30.02,10.0,Calm,Calm,-,N/A,,Clear,0,2013-12-09 23:53:00
6:14 PM,-7.6,-14.8,71,30.01,10.0,Calm,Calm,-,N/A,,Clear,0,2013-12-10 00:14:00
6:33 PM,-7.6,-14.8,71,30.00,10.0,Calm,Calm,-,N/A,,Clear,0,2013-12-10 00:33:00
6:54 PM,-7.6,-14.8,71,30.00,10.0,South,3.5,-,N/A,,Clear,180,2013-12-10 00:54:00
7:14 PM,-7.6,-14.8,71,30.00,10.0,South,3.5,-,N/A,,Clear,190,2013-12-10 01:14:00
7:33 PM,-7.6,-14.8,71,29.99,10.0,South,4.6,-,N/A,,Clear,180,2013-12-10 01:33:00
7:54 PM,-7.6,-14.8,71,29.98,10.0,South,4.6,-,N/A,,Clear,170,2013-12-10 01:54:00
8:14 PM,-7.6,-14.8,71,29.98,10.0,South,4.6,-,N/A,,Clear,180,2013-12-10 02:14:00
8:33 PM,-7.6,-13.0,77,29.97,10.0,South,4.6,-,N/A,,Scattered Clouds,170,2013-12-10 02:33:00
8:54 PM,-7.6,-13.0,77,29.95,10.0,South,4.6,-,N/A,,Mostly Cloudy,170,2013-12-10 02:54:00
9:14 PM,-7.6,-13.0,77,29.94,10.0,South,3.5,-,N/A,,Mostly Cloudy,170,2013-12-10 03:14:00
9:34 PM,-7.6,-13.0,77,29.93,10.0,South,4.6,-,N/A,,Mostly Cloudy,170,2013-12-10 03:34:00
9:53 PM,-5.8,-13.0,71,29.92,10.0,South,4.6,-,N/A,,Overcast,180,2013-12-10 03:53:00
10:14 PM,-5.8,-11.2,77,29.91,10.0,South,4.6,-,N/A,,Overcast,170,2013-12-10 04:14:00
10:34 PM,-5.8,-11.2,77,29.90,10.0,SSE,3.5,-,N/A,,Overcast,160,2013-12-10 04:34:00
10:54 PM,-5.8,-11.2,77,29.89,10.0,Calm,Calm,-,N/A,,Overcast,0,2013-12-10 04:54:00
11:14 PM,-4.0,-9.4,78,29.87,10.0,SE,4.6,-,N/A,,Overcast,130,2013-12-10 05:14:00
11:34 PM,-4.0,-7.6,85,29.85,10.0,SE,3.5,-,N/A,,Overcast,130,2013-12-10 05:34:00
11:54 PM,-4.0,-7.6,85,29.85,10.0,ESE,3.5,-,N/A,,Overcast,120,2013-12-10 05:54:00